Lake Martin Weather Center

Moon Phase Calendar



Lake Martin Water Level
Online Cameras

 


      

Current Conditions in Dadeville
10/1/2023 7:39:24 AM

63°F
Feels Like 64
Clear
Humidity
100%
Pressure
30.21"
Wind
0
Dew Point
63°F
UV Index
0/10 (Low)
Visibility
6 mi

Hourly Forecast

Date & Time Sun, Oct 1
7:00 AM
Sun, Oct 1
8:00 AM
Sun, Oct 1
9:00 AM
Sun, Oct 1
10:00 AM
Sun, Oct 1
11:00 AM
Sun, Oct 1
12:00 PM
Sun, Oct 1
1:00 PM
Sun, Oct 1
2:00 PM
Sun, Oct 1
3:00 PM
Sun, Oct 1
4:00 PM
Sun, Oct 1
5:00 PM
Sun, Oct 1
6:00 PM
Sun, Oct 1
7:00 PM
Sun, Oct 1
8:00 PM
Sun, Oct 1
9:00 PM
Sun, Oct 1
10:00 PM
Sun, Oct 1
11:00 PM
Mon, Oct 2
12:00 AM
Mon, Oct 2
1:00 AM
Mon, Oct 2
2:00 AM
Mon, Oct 2
3:00 AM
Mon, Oct 2
4:00 AM
Mon, Oct 2
5:00 AM
Mon, Oct 2
6:00 AM
Mon, Oct 2
7:00 AM
Mon, Oct 2
8:00 AM
Mon, Oct 2
9:00 AM
Mon, Oct 2
10:00 AM
Mon, Oct 2
11:00 AM
Mon, Oct 2
12:00 PM
Mon, Oct 2
1:00 PM
Mon, Oct 2
2:00 PM
Mon, Oct 2
3:00 PM
Mon, Oct 2
4:00 PM
Mon, Oct 2
5:00 PM
Mon, Oct 2
6:00 PM
Mon, Oct 2
7:00 PM
Mon, Oct 2
8:00 PM
Mon, Oct 2
9:00 PM
Mon, Oct 2
10:00 PM
Mon, Oct 2
11:00 PM
Tue, Oct 3
12:00 AM
Tue, Oct 3
1:00 AM
Tue, Oct 3
2:00 AM
Tue, Oct 3
3:00 AM
Tue, Oct 3
4:00 AM
Tue, Oct 3
5:00 AM
Tue, Oct 3
6:00 AM
Condition
Clear

Clear

Clear

Clear

Clear

Clear

Clear

Clear

Clear

Clear

Clear

Clear

Clear

Clear

Clear

Clear

Clear

Clear

Clear

Clear

Clear

Clear

Clear

Clear

Clear

Clouds

Clouds

Clouds

Clouds

Clouds

Clouds

Clear

Clear

Clear

Clear

Clear

Clear

Clear

Clear

Clear

Clear

Clear

Clear

Clear

Clear

Clear

Clear

Clear
Temperature 63°F63°F66°F69°F74°F80°F86°F88°F88°F88°F86°F80°F74°F72°F71°F69°F68°F66°F65°F65°F64°F63°F63°F62°F62°F67°F74°F78°F82°F84°F86°F88°F88°F88°F86°F79°F74°F72°F70°F68°F67°F66°F65°F64°F64°F63°F62°F62°F
Feels Like 64°F64°F66°F70°F75°F81°F85°F86°F86°F86°F84°F80°F74°F72°F70°F69°F67°F66°F65°F64°F63°F63°F62°F62°F62°F67°F73°F78°F81°F83°F84°F85°F86°F85°F84°F79°F73°F71°F69°F68°F67°F65°F64°F64°F63°F62°F62°F61°F
Cloudiness 0%0%0%0%0%0%0%1%1%0%0%4%6%0%0%0%0%0%0%0%0%0%0%1%9%77%44%31%24%19%16%0%0%0%0%0%0%0%0%0%0%0%0%0%0%0%0%0%
Visibility 6 mi6 mi6 mi6 mi6 mi6 mi6 mi6 mi6 mi6 mi6 mi6 mi6 mi6 mi6 mi6 mi6 mi6 mi6 mi6 mi6 mi6 mi6 mi6 mi6 mi6 mi6 mi6 mi6 mi6 mi6 mi6 mi6 mi6 mi6 mi6 mi6 mi6 mi6 mi6 mi6 mi6 mi6 mi6 mi6 mi6 mi6 mi6 mi
Precipitation 0%0%0%0%0%0%0%0%0%0%0%0%0%0%0%0%0%0%0%0%0%0%0%0%0%0%0%0%0%0%0%0%0%0%0%0%0%0%0%0%0%0%0%0%0%0%0%0%
Humidity 97%100%92%82%68%53%37%33%32%32%34%46%52%55%58%61%64%68%71%73%76%78%79%81%81%70%57%48%41%36%32%30%29%29%32%44%49%53%56%60%64%67%69%72%74%76%78%79%
Dew Point 63°F63°F63°F64°F63°F61°F57°F55°F54°F54°F54°F57°F55°F55°F55°F55°F55°F55°F55°F55°F56°F56°F56°F56°F56°F57°F57°F57°F56°F54°F53°F52°F52°F51°F52°F55°F53°F53°F53°F54°F54°F54°F54°F55°F55°F55°F55°F55°F
Pressure 30.21"30.21"30.21"30.21"30.21"30.18"30.15"30.12"30.09"30.09"30.06"30.09"30.09"30.12"30.15"30.15"30.15"30.15"30.15"30.15"30.15"30.15"30.15"30.15"30.18"30.18"30.21"30.18"30.18"30.15"30.12"30.09"30.06"30.03"30.03"30.06"30.06"30.09"30.09"30.09"30.09"30.09"30.09"30.09"30.09"30.12"30.12"30.12"
Wind Speed 5.1 mph7.4 mph8.9 mph9.2 mph9.2 mph8.8 mph8.5 mph8.2 mph8.4 mph8.2 mph7.5 mph5 mph5.1 mph5.2 mph4.9 mph4.9 mph4.6 mph4.3 mph4.1 mph4.1 mph4.3 mph4.6 mph4.7 mph4.8 mph4.7 mph5.5 mph6.4 mph7.4 mph8.2 mph8.2 mph7.9 mph7.4 mph7.2 mph7.1 mph6.6 mph4.4 mph4.4 mph4.6 mph4.8 mph4.7 mph4.2 mph4 mph3.8 mph3.1 mph3.6 mph4 mph4 mph4.3 mph
Wind
Direction
68°
ENE
79°
E
87°
E
89°
E
91°
E
90°
E
88°
E
84°
E
82°
E
81°
E
81°
E
83°
E
84°
E
86°
E
97°
E
104°
ESE
96°
E
86°
E
86°
E
81°
E
75°
ENE
72°
ENE
73°
ENE
65°
ENE
62°
ENE
66°
ENE
74°
ENE
83°
E
89°
E
89°
E
88°
E
86°
E
85°
E
83°
E
84°
E
89°
E
86°
E
92°
E
110°
ESE
120°
ESE
122°
ESE
114°
ESE
110°
ESE
96°
E
76°
ENE
71°
ENE
67°
ENE
66°
ENE

Daily Forecast

Date High Low Precip. Humidity
Today
Oct 1

Clear
88 °F
63 °F
0%
53%
Monday
Oct 2

Clouds
88 °F
62 °F
0%
36%
Tuesday
Oct 3

Clear
88 °F
62 °F
0%
35%
Wednesday
Oct 4

Clouds
85 °F
61 °F
0%
32%
Thursday
Oct 5

Clouds
85 °F
60 °F
0%
36%
Friday
Oct 6

Rain
83 °F
65 °F
84%
51%
Saturday
Oct 7

Clear
70 °F
52 °F
0%
22%
Sunday
Oct 8

Clouds
68 °F
44 °F
0%
21%
Monday
Oct 9

Clouds
76 °F
48 °F
0%
23%
Tuesday
Oct 10

Clouds
84 °F
53 °F
0%
26%
Wednesday
Oct 11

Clouds
87 °F
60 °F
0%
32%
Thursday
Oct 12

Clouds
89 °F
65 °F
0%
29%
Friday
Oct 13

Clouds
85 °F
63 °F
0%
34%
Saturday
Oct 14

Rain
70 °F
61 °F
100%
57%
Sunday
Oct 15

Rain
69 °F
62 °F
100%
98%
Monday
Oct 16

Clear
78 °F
57 °F
0%
47%

Temperature 8-14 Day Outlook



Precipitation 8-14 Day Outlook






About Us
Contact Us
Site Map
Search Site
Advertise With Us
   
www.LakeMartin.com
THE LAKE MARTIN WEBSITE

Copyright 2023, Lakes Online
Privacy    |    Legal